Temp
15 16 17 18 19 20 20 16 15 19 18 15 10 14 19 18 19 18 19 18 18 18 18 17 17 17 18 18 18 17 16 12 12 16 16 16 17 15 14 12 14 11 11 13
15 15 16 17 19 19 19 13 14 18 19 12 9 17 18 17 19 18 19 19 19 17 17 17 18 17 18 18 18 17 16 12 11 15 16 15 16 15 14 12 9 13 11 12
15 15 16 17 18 19 19 12 12 12 11 12 15 17 18 18 18 18 19 18 17 17 16 16 17 17 16 15 17 14 14 13 13 12 15 14 13 14 14 13 9 12 12 14
14 15 16 17 18 19 19 10 13 13 11 14 16 16 18 17 18 19 17 17 16 17 15 16 15 15 15 16 14 15 13 13 13 12 13 13 13 13 14 13 12 12 13 13
14 15 16 17 18 19 17 13 12 10 11 14 17 13 18 17 18 18 17 15 16 16 15 16 16 15 15 15 15 14 12 11 12 11 12 12 12 13 12 12 12 11 11 12
13 14 15 17 18 18 16 13 13 10 8 11 12 12 18 18 17 17 17 15 15 14 16 16 15 14 14 14 14 12 12 9 9 10 9 9 10 11 12 13 13 13 11 12
12 13 15 16 17 18 17 14 13 6 8 6 12 16 17 17 17 16 17 16 16 16 13 13 12 12 11 11 11 11 7 7 7 10 10 11 14 14 14 12 13 12 12 12
12 13 14 15 15 16 17 15 14 6 6 8 12 16 16 16 15 16 17 16 14 12 10 9 9 9 9 9 10 10 9 7 9 10 10 11 13 13 14 13 12 12 11 11
11 12 13 14 14 15 16 15 15 10 7 9 13 14 15 10 10 10 14 13 12 9 4 6 8 8 10 11 13 9 8 6 7 9 10 10 11 13 14 12 10 11 11 10
11 12 12 13 13 14 15 13 14 14 7 8 13 11 11 11 10 7 8 14 10 9 7 7 5 8 10 9 8 8 6 7 8 8 10 8 10 11 13 10 11 11 11 11
11 11 12 12 12 13 14 12 13 14 7 9 12 14 13 12 10 9 10 10 7 6 7 5 6 3 7 8 10 9 9 8 7 7 7 9 11 13 11 10 10 10 9 9
11 11 11 12 12 12 13 12 12 13 12 11 12 13 14 15 14 10 9 11 9 8 7 7 5 7 5 6 10 10 11 10 9 9 9 11 11 12 11 11 10 9 9 8
10 11 11 11 11 11 12 12 12 12 5 8 10 11 14 14 14 15 9 5 10 8 8 6 6 8 6 8 9 10 10 11 9 10 11 12 12 12 13 11 9 8 8 7
10 10 11 11 11 11 11 11 11 12 7 5 8 12 12 14 14 14 14 13 11 10 6 5 6 8 8 8 11 9 10 10 10 10 11 11 11 11 10 9 7 7 6 6
10 10 10 10 10 10 10 10 10 11 11 7 6 10 13 13 13 13 13 12 9 7 6 6 7 6 7 6 6 8 9 10 10 10 12 12 12 9 8 7 6 6 6 6
10 10 10 10 9 9 9 8 10 10 10 6 7 8 9 10 10 11 11 10 9 8 7 6 6 8 8 8 8 12 12 12 12 12 12 11 9 7 7 7 7 7 6 7
9 9 9 9 9 9 9 8 10 9 9 5 7 6 6 7 8 7 8 8 7 8 6 6 7 7 8 6 10 12 12 11 10 11 10 8 6 4 6 6 7 7 7 7
9 9 8 8 8 8 7 8 9 8 9 5 6 6 6 7 3 4 4 4 4 4 7 5 6 6 5 8 11 11 10 10 10 8 8 7 7 7 7 6 6 4 5 5
7 7 7 6 6 6 6 7 8 8 7 5 5 7 8 6 5 4 3 3 6 4 5 5 6 6 8 9 9 9 9 9 7 5 4 4 5 5 4 4 5 4 4 3
6 6 6 3 4 5 6 6 3 3 2 2 5 4 6 7 4 4 5 3 5 7 6 6 6 7 8 5 6 6 5 5 5 4 3 3 3 3 4 4 4 2 1 1
6 4 2 4 5 5 3 4 4 4 4 3 3 4 5 4 6 6 3 5 5 5 3 6 4 3 4 4 4 4 5 5 5 6 5 5 4 3 3 2 2 2 1 1
6 5 5 5 3 3 5 5 3 4 4 3 4 4 4 3 3 4 3 5 4 2 1 4 4 4 5 4 4 4 5 6 5 5 5 5 5 4 3 3 2 2 2 2
6 5 3 3 2 4 2 5 4 4 3 3 3 4 3 3 3 3 3 4 3 2 3 3 3 4 5 5 6 5 5 5 3 4 4 4 3 4 3 1 2 1 -0 -0
0 2 2 0 0 3 1 1 2 3 3 4 3 3 2 2 -1 3 3 1 2 4 3 2 2 4 5 4 4 3 4 2 1 2 2 2 1 1 2 1 1 0 -1 1
-1 -1 0 1 1 2 2 2 2 2 2 2 0 1 0 1 -1 2 2 2 3 4 1 -0 1 3 3 3 3 2 0 -0 -1 2 1 1 1 -0 -0 1 2 1 0 -0
-2 -3 -1 1 2 1 2 2 2 1 1 -1 -2 -3 -3 -2 -3 -0 1 -1 -0 -0 -3 -1 2 3 2 2 1 2 2 1 1 1 1 1 1 -0 0 0 0 1 -0 -1
-4 -3 -1 -4 -2 -3 -1 1 0 1 1 -2 -4 -2 1 -2 -5 -3 -0 -2 -2 -2 -2 -2 1 2 1 1 1 1 1 1 1 1 1 0 1 0 -1 -3 -0 0 -0 -0
Height
816 815 812 809 807 805 806 808 825 813 811 826 843 841 828 828 831 828 832 835 840 844 846 852 853 854 849 845 846 854 856 869 877 854 845 841 843 857 862 878 872 883 883 854
816 816 813 811 809 807 807 817 821 813 811 846 857 833 833 833 832 835 835 839 838 842 849 857 850 852 847 847 849 853 855 876 886 864 854 846 850 853 857 868 882 868 881 859
817 816 815 813 811 809 809 819 837 823 822 832 834 836 836 838 832 835 835 839 840 846 854 853 855 855 853 852 850 854 855 869 873 882 865 861 859 855 855 861 886 865 855 840
818 817 816 814 812 811 812 822 834 831 846 838 833 833 834 839 840 835 839 845 847 848 861 859 861 859 858 853 855 856 862 871 868 867 864 861 855 853 848 855 854 857 841 840
818 818 817 815 814 813 813 824 831 834 839 835 833 844 836 840 840 839 845 851 849 849 856 856 860 859 861 861 857 860 866 878 869 869 863 860 855 847 849 847 844 845 842 838
819 819 818 816 815 814 816 821 823 827 849 845 847 850 836 837 838 841 841 846 852 857 851 850 850 854 854 854 859 867 868 882 883 879 876 874 865 846 841 837 834 836 843 833
819 819 819 818 816 815 816 820 822 839 856 858 846 836 834 837 838 844 842 844 848 848 847 850 854 856 858 858 860 860 880 887 892 877 877 875 835 829 829 835 830 829 829 827
819 820 819 819 819 818 818 820 823 836 860 853 845 837 838 839 842 843 843 845 847 848 856 871 875 875 869 866 860 861 867 880 881 872 872 857 838 826 824 826 829 822 823 823
819 820 820 820 821 821 821 822 823 826 848 850 838 841 841 854 856 857 848 849 850 853 878 883 893 892 879 867 858 868 873 878 885 880 870 860 836 823 820 825 833 819 821 824
819 820 821 822 823 823 823 824 825 827 844 839 837 844 847 845 853 864 861 850 856 859 876 885 901 888 872 877 884 879 884 879 878 877 864 861 831 823 821 844 831 818 819 819
818 820 822 823 824 825 825 827 827 828 838 837 834 834 837 841 846 858 853 859 863 872 880 890 888 901 877 873 861 866 868 877 881 879 874 859 820 819 827 821 813 815 816 815
817 819 822 824 825 826 827 829 829 830 832 834 833 832 833 833 835 842 848 848 853 856 869 875 883 873 881 875 858 851 854 848 854 852 840 820 818 813 811 812 813 812 813 813
815 818 821 823 825 826 828 830 831 832 836 836 834 832 830 830 831 833 845 850 842 848 848 862 867 862 868 861 852 846 843 836 842 835 823 814 813 808 807 810 809 811 813 815
812 815 818 822 825 827 828 831 833 835 840 849 835 829 829 827 828 829 831 832 836 840 845 855 857 855 849 846 838 841 837 835 830 824 817 811 808 807 809 809 810 812 812 816
809 813 816 819 823 826 828 830 832 834 837 845 840 829 825 825 825 825 827 829 832 839 847 849 846 846 845 842 840 836 827 823 823 813 805 806 801 803 804 809 812 813 809 807
804 809 813 816 819 823 826 829 829 830 833 839 840 827 823 822 820 822 823 826 828 830 836 839 834 828 833 831 823 807 806 806 805 803 801 800 803 809 813 806 812 811 810 803
801 805 809 813 816 819 822 826 823 824 831 837 837 832 824 823 822 822 823 824 825 826 830 829 825 825 825 827 804 800 801 801 801 798 799 804 812 816 815 809 807 807 806 804
796 801 806 810 813 816 819 821 820 824 827 831 832 827 829 824 829 828 827 829 828 826 822 825 823 821 822 811 795 796 797 797 797 800 800 805 808 810 812 812 809 806 803 800
792 798 803 807 811 814 816 818 821 819 824 825 828 825 823 825 829 829 830 830 828 828 826 823 821 818 810 803 801 798 796 796 801 805 808 811 812 812 812 810 808 806 799 795
795 800 804 812 811 814 818 821 821 822 824 825 826 828 825 825 831 832 832 833 831 824 824 821 819 811 808 810 806 803 803 805 806 810 815 817 814 813 807 806 803 801 797 794
796 801 810 814 814 815 819 825 824 827 825 828 827 827 824 826 826 827 832 829 831 829 834 824 825 827 820 816 813 811 811 812 814 813 815 813 810 807 803 800 799 795 792 790
796 800 810 815 818 822 822 823 828 826 825 827 826 826 825 828 827 828 833 830 833 841 837 827 823 824 819 818 818 816 814 814 813 812 810 807 805 802 799 797 794 790 786 784
799 804 814 818 825 824 830 821 826 825 825 823 825 825 828 828 830 832 835 833 834 835 830 830 824 818 818 817 816 816 815 814 812 809 806 804 801 798 795 791 788 783 779 777
804 811 821 827 833 823 828 830 824 824 823 821 825 829 831 832 840 834 833 838 836 827 833 831 823 819 818 817 816 816 814 812 810 807 804 801 796 792 788 783 780 777 773 769
812 816 824 825 823 822 821 822 822 822 824 825 831 834 836 837 846 837 838 840 831 824 833 830 823 819 817 816 816 814 812 808 806 802 799 793 788 785 781 775 772 770 766 762
813 819 824 823 821 824 823 822 821 823 824 827 832 845 850 847 849 845 840 851 841 833 833 823 817 816 816 815 811 809 807 803 800 796 793 788 783 779 775 769 766 763 759 755
820 823 819 825 824 828 825 822 824 823 826 838 842 844 833 841 858 854 837 842 832 826 821 818 816 816 813 810 807 805 801 798 794 791 786 782 777 772 769 765 759 756 752 750
Wind_Speed
6 9 11 13 16 4 3 4 3 7 4 4 2 2 3 2 4 6 5 4 3 2 2 4 3 3 2 1 1 2 1 3 3 3 7 4 4 5 4 3 3 2 3 7
4 7 10 12 13 14 3 3 1 3 2 3 2 2 4 3 3 4 3 2 3 4 2 3 2 3 2 3 2 1 1 2 3 6 6 4 4 3 3 3 2 6 3 5
3 6 8 9 11 11 4 3 2 4 4 1 6 4 2 3 2 3 4 3 5 4 5 5 2 3 5 6 3 6 5 2 5 5 5 4 6 4 3 5 3 4 11 17
2 3 6 8 9 7 2 3 1 2 1 4 3 3 2 4 2 2 6 5 4 3 2 2 2 2 4 3 2 3 3 2 3 5 7 7 13 12 16 7 10 6 10 11
2 2 5 6 7 3 5 4 4 3 2 2 2 4 1 5 2 2 2 6 1 4 4 4 3 3 2 4 2 3 2 3 3 4 7 9 15 13 11 12 9 8 9 9
3 0 3 6 6 1 4 2 3 4 4 2 4 2 1 3 5 5 5 8 4 2 3 4 3 5 4 4 5 3 2 4 1 5 5 9 6 7 4 4 5 5 5 5
4 1 2 5 7 2 6 3 4 4 2 2 3 1 2 3 1 6 3 4 4 2 4 3 4 3 4 2 5 7 5 4 2 3 3 2 8 3 6 9 9 6 4 3
7 3 3 5 7 7 9 5 4 3 1 1 3 2 4 3 4 3 2 2 1 8 6 4 6 5 7 3 5 1 5 5 3 3 4 6 10 10 2 4 6 5 5 4
9 6 4 5 6 7 8 10 7 6 5 4 0 3 2 3 2 5 3 4 5 7 3 4 4 3 4 4 3 4 5 5 3 2 4 5 8 3 1 3 7 5 2 6
11 7 4 3 4 4 4 5 6 5 3 3 3 3 4 5 3 3 3 2 3 3 2 2 3 4 3 3 3 3 2 1 4 3 7 8 10 7 1 4 5 7 5 11
13 10 7 4 3 4 3 5 4 3 3 3 4 2 4 2 3 4 4 4 3 3 2 3 3 3 5 1 4 5 5 3 5 2 3 8 5 1 5 8 3 4 5 3
16 13 10 6 3 3 4 3 4 4 3 2 4 5 6 4 7 5 2 4 4 4 3 2 2 3 1 4 4 3 4 8 4 9 6 4 5 5 7 4 6 3 1 2
18 16 13 10 6 4 3 4 4 3 4 3 3 5 10 12 13 11 4 3 3 4 4 4 3 4 3 4 5 3 4 4 4 5 6 15 10 14 15 5 3 2 2 4
21 19 16 13 10 8 6 4 4 2 6 2 5 4 7 6 12 17 19 9 4 6 3 3 3 3 6 4 5 7 6 3 5 10 16 14 14 6 6 1 5 7 10 8
23 21 20 16 13 11 9 8 8 8 2 3 4 10 10 11 12 18 17 15 4 3 1 2 3 2 2 2 2 4 6 7 6 10 15 13 14 3 3 8 7 2 4 10
24 23 20 18 16 14 6 2 13 17 11 2 2 5 5 5 6 13 11 12 3 3 3 3 3 3 4 4 4 6 10 8 13 14 14 6 5 8 5 8 2 9 11 12
25 20 20 19 17 18 6 4 3 16 17 2 3 3 3 3 1 2 2 0 2 3 2 3 3 4 4 2 10 11 10 9 10 9 4 5 10 3 5 7 12 13 16 16
24 22 18 15 17 16 8 9 3 18 6 3 3 2 3 0 1 1 3 0 1 1 2 1 2 1 2 4 6 5 4 5 2 5 7 8 9 1 7 14 13 10 9 9
18 17 17 14 4 4 3 6 9 8 3 3 2 3 3 1 0 1 2 2 1 1 1 2 1 1 4 3 4 7 5 5 6 11 12 13 11 7 6 6 8 9 11 9
23 14 4 2 2 12 11 3 2 3 3 2 2 1 1 1 1 1 1 2 1 2 2 2 2 2 3 10 7 6 8 11 7 6 6 2 3 4 7 7 8 9 10 13
4 4 2 9 6 3 4 2 2 1 1 1 1 2 1 2 2 2 1 1 1 2 3 2 2 2 4 7 10 10 13 14 9 7 3 7 8 9 7 8 11 15 16 15
9 18 10 4 3 2 2 1 1 1 3 2 2 2 2 0 1 2 1 1 1 4 2 1 2 2 2 4 6 5 4 2 5 6 8 12 13 17 14 14 17 21 25 27
8 5 3 2 2 1 5 6 2 2 2 3 2 1 1 1 2 2 2 2 4 1 1 3 3 3 3 2 1 2 5 6 7 12 15 16 19 23 22 19 26 28 24 22
3 3 3 3 2 2 3 3 2 2 1 2 3 2 1 1 3 1 2 2 1 2 2 5 1 2 2 3 3 3 6 10 12 15 18 20 20 21 27 26 26 23 23 21
3 3 3 3 2 1 1 1 1 1 2 2 2 2 2 1 2 1 0 1 3 4 4 2 3 4 3 3 4 6 6 9 11 16 16 21 23 22 23 30 28 25 28 25
3 4 3 1 2 1 1 1 1 1 2 2 3 2 3 3 3 2 5 5 6 4 3 3 2 3 3 5 7 13 17 17 17 19 20 21 21 20 23 30 31 30 26 22
3 1 0 2 2 3 2 2 3 7 2 2 3 3 8 2 3 2 4 4 3 3 3 2 2 3 6 11 15 18 20 18 18 20 22 22 25 27 22 15 24 27 26 19
Wind_Direction
351 356 7 17 25 62 79 80 58 350 5 52 32 105 125 7 5 28 58 84 86 94 46 44 86 133 168 301 349 45 347 140 295 264 282 278 110 135 106 118 276 242 198 265
340 348 2 8 17 25 86 86 220 357 21 111 340 287 60 82 56 32 60 68 64 60 94 94 74 139 30 29 24 84 172 357 357 353 344 0 92 156 129 87 85 216 196 264
319 338 352 1 4 14 75 84 49 339 44 83 123 114 95 102 38 64 75 100 72 67 43 23 100 48 7 2 2 74 81 137 170 208 244 252 292 241 250 177 182 233 242 275
263 327 340 352 357 16 80 45 221 190 303 353 94 84 118 121 112 65 33 37 41 124 98 42 69 19 343 341 29 67 91 248 238 246 261 269 273 280 288 245 234 226 273 277
220 320 342 351 357 34 75 123 127 24 66 346 82 14 129 154 102 90 45 122 110 93 142 171 205 178 210 241 8 86 16 274 317 290 272 271 279 271 253 268 282 250 258 276
194 244 355 1 3 59 93 106 92 99 306 51 81 233 188 148 118 17 154 149 112 80 198 187 214 203 215 218 183 180 191 146 132 270 354 318 306 245 211 240 234 216 251 259
181 137 43 34 41 88 114 102 106 83 258 97 161 165 113 134 133 145 157 120 121 188 87 65 29 9 317 248 236 183 157 124 152 267 8 236 251 256 212 211 256 231 259 261
179 157 101 73 68 73 116 106 103 113 102 206 346 142 108 67 23 62 112 42 41 112 48 41 9 343 8 338 44 122 151 136 180 216 211 296 296 280 189 197 267 183 196 272
183 171 135 100 104 114 105 90 93 101 117 251 104 123 103 154 127 8 46 64 76 63 81 76 151 236 247 305 310 87 68 68 131 170 239 251 236 251 306 89 271 196 185 271
192 183 166 128 103 121 134 96 107 95 108 260 158 172 170 126 98 133 296 191 34 42 108 124 157 236 198 240 199 240 18 332 211 219 248 283 251 251 141 96 247 203 245 291
199 197 193 175 126 111 132 100 97 90 120 269 206 189 144 117 107 139 208 55 348 69 105 135 214 162 224 228 229 196 184 195 219 145 211 276 185 317 154 223 254 268 275 250
208 207 207 204 188 136 124 101 106 93 94 227 230 227 204 185 175 141 188 183 162 181 103 206 133 221 153 190 253 154 238 209 208 189 216 240 235 242 266 287 258 255 215 254
211 212 214 215 210 199 169 134 133 87 52 319 356 247 249 220 208 203 137 288 174 177 165 156 192 217 132 205 232 226 293 258 229 350 255 265 270 293 299 285 201 127 97 97
215 215 214 214 216 215 207 176 187 124 102 124 280 290 245 215 205 210 218 220 155 103 118 161 174 189 196 203 246 204 206 199 239 261 274 279 278 288 305 163 41 55 45 4
214 216 216 213 213 216 220 218 207 200 163 197 276 307 265 241 222 220 223 221 157 152 113 168 210 211 145 212 130 204 201 218 251 260 266 271 283 326 161 110 77 55 235 274
213 213 212 209 205 201 174 350 225 209 212 101 290 278 288 273 245 228 217 207 192 165 163 211 238 232 164 226 221 209 231 230 244 266 273 281 22 70 87 89 293 267 271 277
209 203 208 209 202 192 171 189 198 200 189 108 294 274 295 317 341 42 57 70 200 163 214 206 214 216 182 230 272 273 280 248 267 282 322 83 43 73 264 268 282 296 297 302
204 198 192 191 187 197 201 204 182 160 173 146 222 270 340 148 356 36 355 331 351 292 233 12 211 347 158 245 267 302 302 311 20 86 77 117 149 137 8 353 342 325 305 301
166 163 155 130 135 136 157 176 192 202 176 181 126 162 216 76 84 38 21 51 332 354 259 258 125 205 226 252 275 284 276 246 130 81 68 46 29 9 333 306 305 300 305 313
139 125 86 52 100 134 125 137 44 19 356 36 171 40 235 172 97 348 29 44 269 267 255 316 247 261 351 2 2 52 63 83 76 62 36 16 287 268 268 265 288 278 281 286
129 84 94 130 113 105 38 68 152 143 272 165 199 209 125 341 133 174 165 189 187 261 270 254 275 311 357 359 49 46 52 57 55 84 199 246 253 266 288 301 287 290 290 285
124 113 111 91 46 51 116 143 39 166 226 211 173 206 191 332 50 110 142 185 188 249 351 276 283 213 238 58 63 48 80 180 241 244 261 281 286 285 280 280 289 294 293 297
110 79 78 89 355 111 172 183 214 218 193 190 173 89 53 59 47 82 104 200 233 294 227 231 221 159 119 119 96 245 273 312 313 307 310 308 298 298 288 283 295 298 292 295
75 113 119 147 233 233 188 174 180 221 139 132 87 72 88 42 50 90 200 252 254 251 228 232 211 116 197 253 285 319 303 295 295 300 302 295 291 290 303 301 303 298 293 294
90 77 160 183 204 179 141 135 121 77 123 107 80 72 84 41 74 232 25 332 251 228 232 225 217 225 254 291 307 288 277 284 286 295 292 294 301 297 296 309 312 304 301 276
75 61 92 78 124 266 160 133 151 168 98 65 57 108 61 259 140 114 219 155 223 249 212 224 236 274 313 292 280 283 288 290 290 293 294 298 300 294 296 302 306 309 303 271
64 319 145 127 106 186 197 166 213 167 99 163 109 122 212 91 57 266 189 208 223 210 245 241 291 266 265 272 277 280 283 284 292 297 299 296 301 304 299 291 301 305 302 287